Weather History for KJYG - November, 2013

Change the Weather History Date:

Sunday, November 3, 2013

  Actual Average Record
Temperature  
Mean Temperature 45 °F -  
Max Temperature 57 °F 48 °F 77 °F (2008)
Min Temperature 33 °F 31 °F 7 °F (1991)
Degree Days  
Heating Degree Days 20    
Moisture  
Dew Point 31 °F    
Average Humidity 60    
Maximum Humidity 87    
Minimum Humidity 29    
Precipitation  
Precipitation 0.00 in - - ()
Sea Level Pressure  
Sea Level Pressure 29.93 in    
Wind  
Wind Speed 15 mph (SE)    
Max Wind Speed 34 mph    
Max Gust Speed 45 mph    
Visibility 10 miles    
Events      
Averages and records for this station are not official NWS values.
T = Trace of Precipitation, MM = Missing Value Source: NWS Daily Summary

Daily Weather History Graph

Daily Weather History Graph

Search for Another Location

Airport or City:

Trip Planner

Search our weather history database for the weather conditions in past years. The results will help you decide how hot, cold, wet, or windy it might be!

Date:

Astronomy

Nov. 03, 2013 Rise Set
Actual Time 6:57 AM CST 5:05 PM CST
Civil Twilight 6:27 AM CST 5:35 PM CST
Nautical Twilight 5:53 AM CST 6:09 PM CST
Astronomical Twilight 5:19 AM CST 6:43 PM CST
Moon 7:03 AM CST (11/3) 5:19 PM CST (11/3)
Length of Visible Light 11h 08m
Length of Day
10h 07m
New Moon, 0% of the Moon is Illuminated
Nov 3
New Moon
Nov 9
First Quarter
Nov 17
Full
Nov 25
Last Quarter
Dec 2
New

Hourly Weather History & Observations

Time (CST) Temp. Windchill Dew Point Humidity Pressure Visibility Wind Dir Wind Speed Gust Speed Precip Events Conditions
12:15 AM 39.2 °F 33.0 °F 33.8 °F 81% 30.07 in 10.0 mi SE 9.2 mph - N/A   Clear
12:35 AM 39.2 °F 33.6 °F 33.8 °F 81% 30.07 in 10.0 mi SE 8.1 mph - N/A   Clear
12:55 AM 37.4 °F 32.1 °F 32.0 °F 81% 30.07 in 10.0 mi SE 6.9 mph - N/A   Clear
1:15 AM 37.4 °F 31.4 °F 32.0 °F 81% 30.07 in 10.0 mi SE 8.1 mph - N/A   Clear
1:35 AM 37.4 °F 31.4 °F 32.0 °F 81% 30.07 in 10.0 mi SE 8.1 mph - N/A   Clear
1:55 AM 35.6 °F 29.2 °F 32.0 °F 87% 30.07 in 10.0 mi SE 8.1 mph - N/A   Clear
1:15 AM 35.6 °F 28.6 °F 32.0 °F 87% 30.08 in 10.0 mi SE 9.2 mph - N/A   Clear
1:34 AM 35.6 °F 29.2 °F 30.2 °F 81% 30.07 in 10.0 mi SE 8.1 mph - N/A   Clear
1:55 AM 33.8 °F 27.7 °F 30.2 °F 87% 30.07 in 10.0 mi SE 6.9 mph - N/A   Clear
2:15 AM 33.8 °F 26.4 °F 30.2 °F 87% 30.06 in 10.0 mi SE 9.2 mph - N/A   Clear
2:34 AM 33.8 °F 26.4 °F 30.2 °F 87% 30.06 in 10.0 mi SE 9.2 mph - N/A   Clear
2:55 AM 33.8 °F 26.4 °F 30.2 °F 87% 30.06 in 10.0 mi SE 9.2 mph - N/A   Clear
3:15 AM 33.8 °F 25.8 °F 30.2 °F 87% 30.05 in 10.0 mi SE 10.4 mph - N/A   Clear
3:34 AM 33.8 °F 25.8 °F 30.2 °F 87% 30.04 in 10.0 mi SE 10.4 mph - N/A   Clear
3:55 AM 35.6 °F 27.1 °F 30.2 °F 81% 30.03 in 10.0 mi SE 12.7 mph - N/A   Clear
4:15 AM 35.6 °F 28.0 °F 30.2 °F 81% 30.03 in 10.0 mi SE 10.4 mph - N/A   Clear
4:35 AM 35.6 °F 27.5 °F 30.2 °F 81% 30.02 in 10.0 mi SE 11.5 mph - N/A   Clear
4:55 AM 35.6 °F 27.1 °F 30.2 °F 81% 30.02 in 10.0 mi SE 12.7 mph - N/A   Clear
5:15 AM 35.6 °F 28.0 °F 30.2 °F 81% 30.01 in 10.0 mi SE 10.4 mph - N/A   Clear
5:35 AM 35.6 °F 27.5 °F 30.2 °F 81% 30.01 in 10.0 mi SE 11.5 mph - N/A   Clear
5:55 AM 35.6 °F 27.5 °F 30.2 °F 81% 30.02 in 10.0 mi SE 11.5 mph - N/A   Clear
6:15 AM 35.6 °F 27.5 °F 30.2 °F 81% 30.01 in 10.0 mi SE 11.5 mph - N/A   Clear
6:35 AM 35.6 °F 28.0 °F 30.2 °F 81% 30.01 in 10.0 mi SE 10.4 mph - N/A   Clear
6:55 AM 35.6 °F 27.1 °F 30.2 °F 81% 30.01 in 10.0 mi SE 12.7 mph - N/A   Clear
7:15 AM 35.6 °F 27.1 °F 30.2 °F 81% 30.00 in 10.0 mi SE 12.7 mph - N/A   Clear
7:35 AM 37.4 °F 29.3 °F 32.0 °F 81% 30.00 in 10.0 mi SE 12.7 mph 18.4 mph N/A   Clear
7:55 AM 37.4 °F 29.3 °F 32.0 °F 81% 30.00 in 10.0 mi SE 12.7 mph - N/A   Clear
8:15 AM 39.2 °F 31.2 °F 33.8 °F 81% 30.00 in 10.0 mi SE 13.8 mph - N/A   Clear
8:34 AM 41.0 °F 33.9 °F 33.8 °F 76% 30.00 in 10.0 mi SE 12.7 mph - N/A   Clear
8:55 AM 42.8 °F 35.1 °F 33.8 °F 70% 29.99 in 10.0 mi SE 16.1 mph - N/A   Clear
9:15 AM 46.4 °F 39.8 °F 33.8 °F 62% 29.99 in 10.0 mi SSE 16.1 mph 24.2 mph N/A   Clear
9:34 AM 46.4 °F 37.9 °F 33.8 °F 62% 29.97 in 10.0 mi SSE 25.3 mph 28.8 mph N/A   Clear
9:55 AM 48.2 °F - 33.8 °F 58% 29.97 in 10.0 mi SSE 20.7 mph 27.6 mph N/A   Clear
10:15 AM 50.0 °F - 33.8 °F 54% 29.96 in 10.0 mi SSE 20.7 mph 31.1 mph N/A   Clear
10:34 AM 51.8 °F - 33.8 °F 50% 29.94 in 10.0 mi SE 25.3 mph 35.7 mph N/A   Clear
10:55 AM 53.6 °F - 33.8 °F 47% 29.93 in 10.0 mi SSE 28.8 mph 38.0 mph N/A   Clear
11:15 AM 53.6 °F - 32.0 °F 44% 29.92 in 10.0 mi SE 25.3 mph 43.7 mph N/A   Clear
11:34 AM 55.4 °F - 30.2 °F 38% 29.90 in 10.0 mi SE 29.9 mph 39.1 mph N/A   Clear
11:55 AM 55.4 °F - 28.4 °F 36% 29.88 in 10.0 mi SE 34.5 mph 41.4 mph N/A   Clear
12:15 PM 55.4 °F - 28.4 °F 36% 29.86 in 10.0 mi SE 29.9 mph 43.7 mph N/A   Clear
12:35 PM 55.4 °F - 24.8 °F 31% 29.84 in 10.0 mi SE 32.2 mph 41.4 mph N/A   Clear
12:54 PM 57.2 °F - 24.8 °F 29% 29.83 in 10.0 mi SE 27.6 mph 43.7 mph N/A   Clear
1:15 PM 57.2 °F - 24.8 °F 29% 29.82 in 10.0 mi SE 26.5 mph 43.7 mph N/A   Clear
1:35 PM 55.4 °F - 26.6 °F 33% 29.82 in 10.0 mi SE 33.4 mph 44.9 mph N/A   Clear
1:54 PM 57.2 °F - 26.6 °F 31% 29.82 in 10.0 mi SE 29.9 mph 40.3 mph N/A   Clear
2:15 PM 55.4 °F - 26.6 °F 33% 29.82 in 10.0 mi SE 29.9 mph 35.7 mph N/A   Clear
2:35 PM 55.4 °F - 26.6 °F 33% 29.82 in 10.0 mi SE 28.8 mph 40.3 mph N/A   Clear
2:55 PM 55.4 °F - 26.6 °F 33% 29.82 in 10.0 mi SE 24.2 mph 36.8 mph N/A   Clear
3:15 PM 55.4 °F - 26.6 °F 33% 29.82 in 10.0 mi SSE 28.8 mph 38.0 mph N/A   Clear
3:35 PM 55.4 °F - 28.4 °F 36% 29.81 in 10.0 mi SE 26.5 mph 35.7 mph N/A   Clear
3:55 PM 55.4 °F - 28.4 °F 36% 29.82 in 10.0 mi SSE 26.5 mph 34.5 mph N/A   Clear
4:15 PM 55.4 °F - 28.4 °F 36% 29.81 in 10.0 mi SE 25.3 mph 31.1 mph N/A   Clear
4:35 PM 53.6 °F - 28.4 °F 38% 29.81 in 10.0 mi SSE 27.6 mph 35.7 mph N/A   Clear
4:55 PM 53.6 °F - 28.4 °F 38% 29.81 in 10.0 mi SE 23.0 mph 31.1 mph N/A   Clear
5:14 PM 53.6 °F - 28.4 °F 38% 29.81 in 10.0 mi SE 28.8 mph 34.5 mph N/A   Clear
5:35 PM 51.8 °F - 28.4 °F 41% 29.81 in 10.0 mi SE 24.2 mph 28.8 mph N/A   Clear
5:55 PM 51.8 °F - 30.2 °F 44% 29.82 in 10.0 mi SE 23.0 mph 31.1 mph N/A   Clear
6:15 PM 51.8 °F - 30.2 °F 44% 29.83 in 10.0 mi SE 24.2 mph 31.1 mph N/A   Clear
6:35 PM 51.8 °F - 30.2 °F 44% 29.84 in 10.0 mi SE 19.6 mph 26.5 mph N/A   Clear
6:55 PM 51.8 °F - 30.2 °F 44% 29.84 in 10.0 mi SE 21.9 mph 27.6 mph N/A   Clear
7:15 PM 51.8 °F - 30.2 °F 44% 29.84 in 10.0 mi SE 20.7 mph 26.5 mph N/A   Clear
7:35 PM 50.0 °F - 32.0 °F 50% 29.84 in 10.0 mi SE 20.7 mph 26.5 mph N/A   Clear
7:55 PM 50.0 °F - 32.0 °F 50% 29.84 in 10.0 mi SE 19.6 mph 27.6 mph N/A   Clear
8:15 PM 50.0 °F - 33.8 °F 54% 29.84 in 10.0 mi SE 20.7 mph 25.3 mph N/A   Clear
8:35 PM 50.0 °F - 33.8 °F 54% 29.84 in 10.0 mi SE 19.6 mph 26.5 mph N/A   Clear
8:55 PM 50.0 °F - 33.8 °F 54% 29.84 in 10.0 mi SE 18.4 mph 28.8 mph N/A   Clear
9:15 PM 50.0 °F - 33.8 °F 54% 29.84 in 10.0 mi SE 21.9 mph 26.5 mph N/A   Clear
9:35 PM 50.0 °F - 33.8 °F 54% 29.83 in 10.0 mi SE 23.0 mph 27.6 mph N/A   Clear
9:54 PM 50.0 °F - 33.8 °F 54% 29.84 in 10.0 mi SSE 21.9 mph 32.2 mph N/A   Clear
10:15 PM 50.0 °F - 33.8 °F 54% 29.84 in 10.0 mi SE 21.9 mph 32.2 mph N/A   Clear
10:35 PM 50.0 °F - 33.8 °F 54% 29.84 in 10.0 mi SSE 23.0 mph 28.8 mph N/A   Clear
10:55 PM 48.2 °F - 33.8 °F 58% 29.84 in 10.0 mi SE 17.3 mph 24.2 mph N/A   Clear